Temp
-15 -15 -16 -16 -16 -15 -15 -15 -14 -13 -13 -13 -14 -14 -14 -15 -16 -17 -18 -18 -19 -20 -20 -20 -20 -21 -21 -21 -21 -21 -21 -21 -20 -20 -19 -19 -19 -19
-16 -16 -16 -16 -16 -16 -16 -15 -15 -15 -14 -15 -15 -15 -16 -18 -19 -21 -21 -22 -23 -24 -23 -23 -23 -23 -23 -23 -23 -22 -23 -23 -22 -22 -22 -22 -22 -21
-16 -16 -16 -16 -16 -16 -16 -16 -16 -17 -17 -16 -18 -19 -20 -21 -22 -23 -24 -25 -25 -25 -25 -25 -24 -24 -24 -24 -23 -24 -24 -24 -24 -23 -23 -23 -23 -23
-16 -17 -17 -17 -16 -17 -17 -17 -18 -19 -20 -20 -21 -22 -23 -24 -24 -25 -25 -25 -25 -25 -25 -26 -26 -26 -25 -25 -25 -25 -25 -25 -25 -25 -25 -25 -25 -24
-17 -17 -17 -17 -17 -18 -18 -19 -20 -22 -24 -24 -24 -25 -25 -25 -25 -25 -25 -25 -26 -27 -27 -26 -26 -26 -27 -26 -26 -26 -25 -25 -25 -26 -26 -26 -26 -25
-17 -17 -18 -18 -18 -19 -19 -21 -23 -24 -25 -26 -26 -25 -25 -25 -26 -26 -26 -27 -27 -27 -27 -27 -27 -27 -27 -27 -27 -27 -27 -27 -27 -27 -27 -26 -26 -26
-17 -18 -19 -19 -20 -20 -23 -24 -26 -26 -26 -26 -26 -26 -27 -27 -27 -27 -26 -26 -27 -27 -27 -27 -27 -28 -28 -28 -26 -26 -27 -28 -28 -28 -27 -27 -27 -27
-18 -19 -19 -20 -21 -24 -25 -26 -26 -26 -27 -27 -27 -27 -27 -27 -26 -26 -26 -26 -27 -27 -26 -27 -26 -27 -27 -27 -27 -27 -27 -27 -28 -28 -29 -28 -28 -28
-19 -20 -21 -22 -24 -25 -26 -26 -27 -29 -29 -28 -27 -27 -26 -26 -26 -26 -26 -25 -26 -26 -24 -25 -26 -26 -26 -26 -27 -27 -27 -28 -28 -28 -29 -29 -30 -30
-20 -21 -23 -25 -25 -26 -26 -27 -28 -28 -28 -28 -27 -27 -26 -26 -25 -25 -24 -25 -25 -25 -24 -25 -25 -25 -25 -26 -26 -26 -27 -28 -28 -29 -29 -29 -29 -30
-21 -24 -26 -26 -26 -27 -27 -27 -28 -28 -28 -27 -27 -27 -27 -26 -25 -25 -24 -25 -26 -26 -25 -25 -25 -25 -26 -26 -26 -26 -27 -27 -27 -28 -29 -29 -30 -30
-24 -26 -26 -27 -27 -27 -27 -27 -27 -27 -27 -27 -27 -27 -27 -26 -26 -26 -25 -25 -26 -26 -26 -25 -25 -25 -26 -26 -26 -26 -26 -27 -27 -28 -28 -29 -29 -29
-25 -26 -27 -28 -27 -27 -27 -27 -27 -27 -27 -27 -27 -27 -27 -27 -26 -26 -25 -25 -25 -25 -24 -25 -25 -26 -26 -26 -26 -26 -27 -27 -27 -27 -28 -28 -29 -29
-26 -27 -28 -27 -27 -27 -27 -26 -27 -27 -27 -26 -26 -27 -27 -26 -26 -26 -25 -25 -25 -25 -25 -26 -27 -27 -26 -26 -27 -27 -28 -28 -28 -28 -27 -27 -28 -29
-27 -27 -27 -27 -27 -26 -26 -26 -26 -26 -26 -26 -27 -26 -26 -25 -25 -26 -26 -25 -25 -26 -26 -26 -27 -27 -27 -27 -27 -28 -28 -28 -28 -27 -26 -26 -27 -27
-27 -27 -27 -26 -26 -26 -26 -26 -26 -26 -26 -26 -26 -26 -26 -26 -25 -25 -25 -25 -25 -26 -26 -26 -26 -27 -27 -27 -27 -27 -28 -28 -27 -27 -26 -25 -25 -25
-27 -27 -27 -26 -26 -26 -26 -26 -26 -26 -26 -26 -26 -26 -26 -25 -25 -25 -25 -25 -25 -25 -26 -26 -26 -26 -27 -27 -27 -27 -27 -27 -26 -26 -25 -25 -25 -25
-27 -26 -26 -26 -26 -26 -26 -27 -26 -27 -27 -27 -27 -27 -26 -26 -26 -25 -25 -24 -25 -25 -26 -26 -26 -26 -26 -27 -26 -26 -26 -26 -26 -25 -25 -25 -25 -25
-26 -26 -26 -26 -26 -26 -27 -27 -27 -27 -27 -28 -28 -27 -27 -27 -27 -26 -25 -25 -25 -25 -26 -25 -26 -26 -26 -26 -26 -26 -26 -26 -26 -26 -25 -25 -25 -25
-26 -26 -26 -26 -26 -27 -27 -27 -27 -28 -28 -28 -28 -28 -27 -27 -27 -27 -27 -26 -26 -25 -26 -26 -26 -26 -25 -26 -26 -26 -25 -25 -25 -25 -25 -24 -25 -24
-26 -26 -26 -26 -26 -27 -27 -27 -28 -28 -28 -28 -28 -28 -28 -28 -28 -28 -28 -27 -27 -26 -26 -26 -25 -26 -26 -25 -25 -25 -25 -24 -24 -25 -25 -24 -24 -24
-26 -26 -26 -26 -26 -27 -27 -28 -28 -28 -28 -28 -28 -28 -28 -28 -28 -28 -29 -28 -27 -27 -26 -26 -26 -26 -26 -25 -26 -25 -25 -25 -24 -24 -24 -24 -24 -23
-26 -26 -26 -26 -27 -27 -27 -28 -28 -28 -28 -28 -28 -28 -28 -28 -28 -28 -29 -29 -28 -28 -27 -27 -26 -26 -26 -26 -26 -26 -25 -25 -25 -25 -24 -24 -24 -24
Height
5615 5606 5597 5588 5577 5565 5552 5538 5524 5521 5525 5516 5489 5470 5449 5434 5420 5406 5398 5391 5383 5374 5366 5362 5359 5357 5354 5351 5349 5348 5347 5347 5348 5354 5359 5363 5370 5377
5600 5590 5580 5569 5557 5543 5529 5514 5498 5480 5475 5479 5463 5442 5420 5397 5384 5372 5362 5355 5352 5344 5336 5331 5329 5324 5320 5317 5317 5317 5315 5316 5317 5320 5323 5329 5334 5340
5583 5572 5560 5547 5533 5519 5503 5487 5471 5449 5430 5439 5422 5409 5396 5376 5359 5342 5330 5325 5322 5321 5311 5303 5300 5296 5292 5290 5287 5287 5287 5287 5288 5291 5294 5298 5302 5308
5565 5552 5538 5525 5509 5492 5475 5458 5438 5418 5393 5384 5392 5380 5363 5354 5341 5327 5311 5300 5294 5293 5286 5280 5276 5272 5268 5266 5263 5262 5261 5262 5263 5265 5268 5272 5275 5281
5544 5531 5516 5499 5483 5464 5444 5423 5404 5387 5371 5353 5354 5350 5340 5325 5315 5303 5294 5284 5275 5269 5265 5261 5255 5252 5249 5246 5243 5241 5239 5238 5238 5240 5244 5248 5252 5256
5524 5507 5490 5471 5452 5432 5412 5392 5376 5362 5348 5336 5327 5321 5312 5301 5289 5280 5279 5268 5261 5255 5250 5243 5240 5238 5234 5230 5229 5225 5222 5219 5217 5217 5218 5223 5228 5233
5503 5484 5465 5444 5424 5401 5379 5365 5349 5337 5326 5313 5306 5299 5291 5283 5274 5268 5263 5257 5252 5244 5239 5235 5229 5224 5220 5214 5212 5211 5210 5207 5204 5201 5200 5202 5206 5212
5479 5460 5439 5420 5399 5380 5361 5345 5327 5311 5302 5293 5289 5282 5278 5270 5264 5258 5253 5246 5242 5233 5224 5226 5213 5215 5208 5202 5199 5196 5194 5192 5190 5189 5188 5188 5189 5193
5453 5433 5414 5391 5373 5359 5344 5328 5315 5302 5291 5284 5279 5273 5268 5262 5256 5250 5243 5237 5231 5224 5219 5218 5207 5204 5198 5194 5188 5184 5181 5179 5177 5177 5177 5177 5178 5179
5429 5406 5384 5369 5354 5338 5326 5316 5305 5296 5287 5278 5270 5266 5260 5253 5246 5241 5237 5233 5225 5217 5210 5209 5199 5196 5190 5184 5179 5175 5172 5169 5166 5163 5161 5161 5163 5165
5405 5382 5364 5350 5336 5322 5313 5306 5298 5290 5282 5273 5266 5259 5253 5247 5242 5238 5232 5227 5222 5211 5204 5198 5189 5185 5178 5174 5171 5167 5162 5157 5152 5149 5145 5144 5145 5148
5389 5369 5351 5335 5322 5312 5303 5297 5291 5284 5278 5272 5264 5257 5252 5246 5239 5232 5228 5224 5218 5211 5199 5193 5184 5177 5173 5165 5163 5157 5152 5146 5142 5136 5132 5129 5128 5129
5368 5354 5338 5324 5313 5303 5296 5290 5285 5280 5274 5268 5263 5257 5251 5245 5239 5233 5226 5219 5215 5206 5195 5188 5181 5173 5167 5163 5157 5152 5146 5140 5133 5127 5121 5118 5115 5116
5352 5339 5327 5316 5307 5299 5293 5287 5281 5276 5271 5266 5261 5255 5251 5245 5239 5232 5225 5217 5209 5200 5194 5187 5180 5173 5167 5160 5155 5150 5145 5138 5130 5123 5117 5113 5109 5110
5340 5329 5319 5311 5304 5296 5290 5285 5280 5275 5269 5264 5259 5254 5249 5244 5238 5231 5224 5217 5208 5202 5196 5188 5181 5174 5168 5162 5157 5153 5148 5141 5132 5125 5119 5116 5113 5114
5333 5324 5315 5307 5300 5294 5288 5283 5277 5272 5268 5263 5257 5252 5247 5241 5236 5230 5225 5219 5212 5205 5197 5190 5184 5178 5173 5169 5164 5158 5152 5146 5138 5130 5125 5125 5127 5133
5326 5318 5310 5304 5297 5291 5285 5280 5275 5271 5265 5259 5254 5249 5243 5238 5232 5227 5223 5217 5212 5207 5200 5194 5188 5184 5180 5175 5171 5166 5159 5153 5146 5140 5138 5140 5145 5155
5320 5313 5307 5301 5296 5290 5284 5278 5273 5268 5262 5256 5250 5245 5239 5234 5229 5224 5220 5216 5212 5207 5202 5198 5193 5190 5187 5184 5179 5174 5169 5163 5158 5153 5155 5160 5166 5174
5316 5310 5304 5299 5294 5288 5283 5277 5271 5264 5259 5253 5248 5243 5238 5232 5227 5222 5217 5214 5210 5208 5204 5200 5197 5195 5193 5191 5188 5186 5179 5175 5172 5170 5172 5176 5182 5189
5312 5308 5303 5297 5292 5285 5279 5273 5266 5261 5256 5251 5246 5241 5235 5230 5225 5220 5215 5211 5208 5206 5204 5201 5200 5198 5198 5197 5195 5195 5190 5188 5186 5186 5185 5190 5196 5201
5311 5306 5301 5295 5288 5282 5276 5269 5265 5260 5255 5250 5244 5239 5233 5227 5222 5217 5212 5210 5206 5204 5203 5202 5201 5201 5201 5200 5201 5201 5200 5198 5196 5197 5198 5201 5205 5210
5310 5305 5298 5292 5286 5280 5274 5269 5264 5258 5253 5248 5243 5238 5233 5227 5222 5216 5211 5208 5204 5202 5202 5201 5201 5202 5203 5203 5203 5206 5207 5207 5207 5207 5207 5208 5213 5217
5308 5303 5297 5291 5285 5279 5273 5268 5262 5257 5252 5247 5243 5238 5233 5228 5223 5217 5213 5208 5205 5201 5200 5200 5201 5202 5203 5205 5206 5209 5211 5213 5214 5216 5217 5217 5221 5223
Wind_Speed
68 68 71 75 80 86 91 96 101 99 96 100 108 112 114 113 110 108 104 102 100 98 97 96 94 90 89 89 89 88 89 90 92 93 94 96 97 100
68 72 78 83 87 93 99 104 109 115 115 111 109 108 106 104 101 97 95 92 88 85 86 84 82 82 81 81 80 80 80 81 82 82 83 84 86 89
75 79 84 90 95 101 107 111 116 120 120 109 101 95 91 90 90 90 89 85 82 78 79 79 77 76 75 74 74 72 73 74 75 76 77 78 80 82
80 86 91 97 103 109 113 117 120 113 107 101 88 82 80 75 76 77 81 83 81 75 70 65 65 65 64 64 63 63 63 64 65 66 68 70 71 73
86 92 99 105 109 114 119 119 109 99 93 90 81 73 72 76 77 76 73 68 62 60 58 56 56 54 51 51 53 55 57 58 61 61 61 63 66 68
93 99 105 110 116 122 117 105 95 89 85 83 81 77 75 69 62 58 49 50 48 45 43 45 42 41 44 47 45 43 42 43 46 51 57 59 62 65
100 105 110 116 122 112 99 91 88 88 85 81 74 65 53 49 48 42 34 31 29 34 38 38 44 47 49 53 50 43 38 34 33 37 42 46 53 58
105 109 114 121 105 92 87 88 86 78 67 60 48 47 45 42 35 34 39 38 34 40 45 40 51 48 51 54 53 50 40 32 26 28 30 35 41 47
108 114 119 99 88 85 83 76 63 51 46 44 43 40 34 37 41 36 29 25 24 28 28 25 32 30 32 33 34 33 31 30 31 31 33 30 30 32
112 114 95 86 85 79 69 56 44 41 39 39 37 36 39 36 30 31 26 22 28 34 36 31 37 34 33 31 27 25 27 28 33 35 33 32 34 34
110 90 85 83 74 67 55 45 39 35 32 31 36 36 31 32 31 26 26 25 24 31 33 33 34 31 32 33 29 29 31 31 34 35 37 38 40 39
84 80 77 70 63 58 46 38 32 26 27 26 25 26 26 25 27 29 28 26 27 26 32 29 29 28 22 28 28 31 35 30 27 28 31 34 34 40
78 72 65 58 55 41 33 29 26 26 21 20 19 20 23 24 25 27 29 29 26 26 29 31 27 26 20 20 25 24 20 22 20 20 20 22 23 25
71 63 53 47 39 31 26 25 25 20 18 19 20 22 21 21 23 25 27 30 33 31 30 28 23 22 25 20 18 17 18 22 25 17 14 11 12 18
61 51 43 40 33 26 28 21 19 17 18 20 21 21 21 20 21 24 27 29 33 31 26 29 24 25 22 20 17 17 22 23 23 20 9 2 11 25
50 41 36 32 27 28 19 21 19 19 19 19 20 22 22 23 22 22 22 25 27 28 24 28 24 21 20 23 25 18 20 21 23 18 9 15 27 39
41 33 30 27 28 22 25 20 21 22 24 25 26 27 28 27 25 23 22 23 23 23 19 24 22 19 19 29 26 23 21 21 22 21 19 30 43 48
32 28 26 25 18 23 21 24 25 26 26 26 25 24 25 25 24 23 21 19 20 20 16 18 19 18 17 21 23 21 26 30 28 27 28 37 41 41
26 24 24 21 23 22 24 26 26 26 23 20 21 22 24 24 24 22 19 17 16 16 15 10 15 14 15 19 24 23 34 37 33 32 27 33 34 34
24 23 21 22 25 27 27 25 24 19 17 21 23 24 24 23 21 22 20 17 14 12 11 7 8 11 11 14 18 20 24 21 22 27 25 27 28 30
22 21 22 25 25 24 23 20 15 15 20 22 22 23 23 22 22 23 21 17 12 9 8 7 4 7 8 13 13 14 15 18 29 23 27 22 21 26
19 22 23 22 21 21 19 16 18 20 22 20 21 20 19 20 21 24 20 15 11 8 6 5 3 4 5 12 15 10 14 18 17 17 21 20 22 21
20 20 21 22 22 22 20 20 20 20 20 18 16 16 17 20 21 22 21 17 13 8 6 5 1 3 8 11 16 20 20 17 20 17 17 28 29 27
Wind_Direction
306 306 306 306 306 306 306 305 305 304 303 303 301 299 297 295 293 291 289 287 285 284 283 281 280 278 277 275 274 272 269 266 264 262 260 257 253 250
307 307 307 307 306 306 306 306 306 306 306 304 300 298 297 295 293 291 289 288 288 287 286 285 284 282 279 277 273 271 268 265 263 260 258 255 252 249
309 308 308 308 308 308 307 308 308 307 305 304 301 298 294 293 293 292 292 292 290 289 288 287 285 282 280 278 275 271 268 266 263 260 257 256 253 251
309 309 309 309 309 309 310 309 309 307 304 302 301 299 297 294 292 292 291 292 292 290 287 286 285 282 280 279 278 275 272 269 265 262 258 255 253 251
310 310 311 311 311 311 312 311 308 305 304 303 305 303 300 299 296 293 291 290 291 290 289 287 283 283 283 281 281 280 276 273 268 263 258 254 251 250
312 313 313 313 313 314 313 309 307 306 306 306 305 305 304 299 298 297 298 295 292 291 290 286 285 285 286 285 287 286 283 279 271 264 260 254 249 247
315 315 315 315 315 314 311 310 309 307 305 303 304 305 304 304 304 304 307 301 297 294 287 284 285 283 285 287 289 293 292 285 281 272 263 256 251 247
317 315 316 316 315 313 313 312 310 309 306 305 310 307 310 312 313 310 307 306 303 291 289 285 282 286 285 287 291 292 293 290 285 281 274 261 253 248
317 316 318 316 315 316 314 314 313 311 310 311 311 312 317 314 314 321 323 325 315 302 308 311 297 297 298 300 295 291 290 288 286 283 272 267 259 252
319 321 318 318 317 316 316 317 317 314 314 314 316 318 319 325 332 335 330 325 316 309 308 307 296 294 294 297 306 313 307 296 285 278 266 260 259 248
322 320 319 318 318 317 319 319 318 317 318 319 320 327 332 332 330 332 336 340 338 325 322 320 312 311 300 286 298 307 300 288 281 277 270 260 254 250
322 321 319 319 317 318 318 320 322 323 322 323 328 334 339 344 349 348 349 351 346 338 327 328 321 320 312 297 299 298 306 304 301 292 283 276 262 250
324 322 321 319 321 323 324 326 326 329 335 341 345 346 350 348 348 348 345 346 354 354 348 342 337 329 326 314 311 314 314 321 320 307 294 281 265 246
325 323 323 324 330 330 332 332 332 340 345 345 348 349 346 346 345 345 346 349 355 360 357 349 343 340 346 346 348 358 15 3 354 340 322 301 258 217
325 325 324 326 328 334 332 338 340 341 343 345 342 339 338 339 344 349 350 351 357 1 356 352 350 351 7 17 33 59 31 19 8 5 5 112 149 153
324 324 322 327 330 331 341 341 341 339 337 334 334 334 335 334 336 339 344 350 359 0 356 3 12 21 41 55 49 43 28 19 21 36 69 127 133 137
327 325 327 329 329 332 335 340 337 336 334 332 331 329 328 329 330 327 333 340 357 7 1 7 20 39 67 55 34 41 39 32 47 73 99 125 131 133
326 327 327 329 330 331 335 333 331 329 329 329 331 334 335 335 331 328 329 331 344 3 7 8 25 43 72 66 58 38 58 61 66 90 111 126 133 139
330 328 328 332 335 334 327 325 324 326 331 336 338 340 340 340 340 336 329 331 325 351 8 9 30 51 77 82 74 60 75 72 55 66 119 134 140 145
333 333 332 334 332 330 330 328 328 338 345 343 341 339 339 337 336 342 349 334 319 320 357 19 33 54 88 104 93 90 83 71 75 73 89 144 146 148
333 335 337 336 334 334 335 339 349 346 342 342 347 347 345 343 341 337 337 336 315 292 320 14 72 74 92 116 121 101 91 87 94 88 95 91 136 160
341 343 346 345 344 343 344 346 345 343 343 347 353 359 4 4 2 3 349 340 328 298 276 323 47 122 104 131 128 131 113 105 116 104 106 132 120 121
353 356 354 353 352 350 346 340 337 339 343 345 350 356 359 0 2 1 358 357 353 325 263 262 286 151 147 141 132 132 124 122 121 122 110 120 138 123